Date String (YYYY-MM-DD hh:mm:ss) UTC,Instrument flags,absolute air pressure of the measurement (hPa),sample flow rate (lpm),inlet stack bypass flow (lpm),air temperature of the measurement (°C),ambient temperature measured by the external sensor (°C),aerosol sample conditioner tube jacket temperature (°C),OPC LED temperature (°C),internal box temperature (°C),relative humidity of the measurement (%),span deviation,mass concentration of particles derived from Lorenz-Mie calculation of OPC scattering (μg/m³),mass concentration of particles derived from Lorenz-Mie calculation of OPC scattering (μg/m³),mass concentration of particles derived from Lorenz-Mie calculation of OPC scattering (μg/m³)
DateTimeUTC,F1_M11,P_M11,Q1_M11,Q2_M11,T1_M11,T2_M11,T3_M11,T4_M11,T5_M11,U1_M11,ZSPAN_M11,X2_M11,X0_M11,X1_M11
2023-06-30 21:00:00,SystemResetWarning,0834.2,5.01,000.00,029.5,025.5,000.0,037.8,030.8,29.4,0000.0,0003.86,0010.23,0002.99
2023-06-30 21:01:00,SystemResetWarning,0834.2,5.01,000.00,029.4,025.7,000.0,037.9,030.6,29.1,0000.0,0003.83,0009.83,0002.99
2023-06-30 21:02:00,SystemResetWarning,0834.2,4.99,000.00,029.3,026.1,000.0,037.9,030.6,29.7,0000.0,0003.81,0009.53,0003.00
2023-06-30 21:03:00,SystemResetWarning,0834.2,5.00,000.00,029.3,026.5,000.0,037.9,030.7,30.5,0000.0,0003.75,0009.15,0002.99
2023-06-30 21:04:00,SystemResetWarning,0834.3,4.99,000.00,029.3,026.8,000.0,037.9,030.8,30.0,0000.0,0003.72,0009.19,0002.98
2023-06-30 21:05:00,SystemResetWarning,0834.3,5.01,000.00,029.3,027.1,000.0,037.9,030.9,29.4,0000.0,0003.69,0009.05,0002.98
2023-06-30 21:06:00,SystemResetWarning,0834.3,4.98,000.00,029.4,027.4,000.0,037.9,030.9,29.8,0000.0,0003.64,0008.87,0002.96
2023-06-30 21:07:00,SystemResetWarning,0834.6,4.99,000.00,029.4,027.6,000.0,037.9,030.9,29.9,0000.0,0003.60,0008.77,0002.95
2023-06-30 21:08:00,SystemResetWarning,0834.5,5.00,000.00,029.4,027.8,000.0,037.9,031.0,29.2,0000.0,0003.55,0008.48,0002.91
2023-06-30 21:09:00,SystemResetWarning,0834.3,5.01,000.00,029.4,028.0,000.0,037.9,031.1,29.2,0000.0,0003.52,0007.58,0002.88
2023-06-30 21:10:00,SystemResetWarning,0834.5,5.00,000.00,029.5,028.1,000.0,038.0,031.1,28.9,0000.0,0003.52,0006.98,0002.87
2023-06-30 21:11:00,SystemResetWarning,0834.3,5.00,000.00,029.5,028.2,000.0,038.0,031.1,29.3,0000.0,0003.50,0006.53,0002.84
2023-06-30 21:12:00,SystemResetWarning,0834.4,5.00,000.00,029.5,028.3,000.0,038.0,031.2,28.7,0000.0,0003.48,0006.63,0002.81
2023-06-30 21:13:00,SystemResetWarning,0834.4,5.00,000.00,029.6,028.4,000.0,038.0,031.2,29.1,0000.0,0003.48,0007.61,0002.78
2023-06-30 21:14:00,SystemResetWarning,0834.5,4.99,000.00,029.6,028.5,000.0,038.0,031.3,28.9,0000.0,0003.47,0007.52,0002.77
2023-06-30 21:15:00,SystemResetWarning,0834.3,5.00,000.00,029.6,027.7,000.0,038.0,031.2,28.6,0000.0,0003.44,0007.50,0002.75
2023-06-30 21:16:00,SystemResetWarning,0834.4,5.00,000.00,029.6,026.1,000.0,037.9,031.0,28.9,0000.0,0003.42,0008.01,0002.74
2023-06-30 21:17:00,SystemResetWarning,0834.4,5.00,000.00,029.5,025.6,000.0,037.8,030.8,28.5,0000.0,0003.40,0007.98,0002.72
2023-06-30 21:18:00,SystemResetWarning,0834.4,5.00,000.00,029.4,025.8,000.0,037.8,030.6,28.8,0000.0,0003.41,0008.04,0002.70
2023-06-30 21:19:00,SystemResetWarning,0834.4,5.01,000.00,029.3,026.2,000.0,037.9,030.7,29.2,0000.0,0003.39,0007.97,0002.69
2023-06-30 21:20:00,SystemResetWarning,0834.4,5.00,000.00,029.3,026.6,000.0,037.9,030.8,29.9,0000.0,0003.35,0008.07,0002.66
2023-06-30 21:21:00,SystemResetWarning,0834.4,5.00,000.00,029.3,026.9,000.0,037.9,030.8,29.7,0000.0,0003.34,0008.05,0002.67
2023-06-30 21:22:00,SystemResetWarning,0834.5,5.01,000.00,029.3,027.2,000.0,037.9,030.9,30.7,0000.0,0003.35,0008.63,0002.69
2023-06-30 21:23:00,SystemResetWarning,0834.5,4.99,000.00,029.4,027.5,000.0,037.9,031.0,30.9,0000.0,0003.37,0008.82,0002.75
2023-06-30 21:24:00,SystemResetWarning,0834.5,5.00,000.00,029.4,027.7,000.0,037.9,031.0,30.4,0000.0,0003.42,0008.44,0002.85
2023-06-30 21:25:00,SystemResetWarning,0834.5,4.99,000.00,029.4,027.9,000.0,037.9,031.1,30.6,0000.0,0003.53,0008.61,0003.01
2023-06-30 21:26:00,SystemResetWarning,0834.5,5.00,000.00,029.5,028.0,000.0,038.0,031.1,30.1,0000.0,0003.60,0008.70,0003.11
2023-06-30 21:27:00,SystemResetWarning,0834.6,5.00,000.00,029.5,028.2,000.0,038.0,031.1,30.2,0000.0,0003.67,0008.19,0003.16
2023-06-30 21:28:00,SystemResetWarning,0834.5,5.00,000.00,029.5,028.3,000.0,038.0,031.2,30.5,0000.0,0003.76,0008.37,0003.20
2023-06-30 21:29:00,SystemResetWarning,0834.5,5.01,000.00,029.6,028.4,000.0,038.0,031.2,30.5,0000.0,0003.81,0008.61,0003.24
2023-06-30 21:30:00,SystemResetWarning,0834.5,4.98,000.00,029.6,027.6,000.0,037.9,031.2,29.8,0000.0,0003.89,0009.00,0003.29
2023-06-30 21:31:00,SystemResetWarning,0834.8,5.00,000.00,029.5,026.1,000.0,037.8,031.0,29.7,0000.0,0003.99,0009.47,0003.38
2023-06-30 21:32:00,SystemResetWarning,0835.0,5.00,000.00,029.5,025.7,000.0,037.8,030.8,29.9,-000.7,0004.09,0009.79,0003.46
2023-06-30 21:33:00,SystemResetWarning,0835.0,5.00,000.00,029.4,025.9,000.0,037.8,030.6,30.2,-003.3,0004.17,0010.10,0003.53
2023-06-30 21:34:00,SystemResetWarning,0834.9,5.01,000.00,029.3,026.3,000.0,037.8,030.7,30.0,-003.5,0004.25,0009.97,0003.58
2023-06-30 21:35:00,SystemResetWarning,0834.8,4.99,000.00,029.3,026.6,000.0,037.9,030.8,30.2,-003.3,0004.32,0009.88,0003.64
2023-06-30 21:36:00,SystemResetWarning,0835.1,4.99,000.00,029.3,027.0,000.0,037.9,030.8,30.5,-002.7,0004.37,0009.81,0003.69
2023-06-30 21:37:00,SystemResetWarning,0834.9,5.00,000.00,029.3,027.3,000.0,037.9,030.9,30.6,-003.0,0004.44,0009.85,0003.74
2023-06-30 21:38:00,SystemResetWarning,0834.8,5.01,000.00,029.4,027.5,000.0,037.9,030.9,30.5,-003.4,0004.52,0009.84,0003.81
2023-06-30 21:39:00,SystemResetWarning,0835.2,5.01,000.00,029.4,027.7,000.0,037.9,031.0,30.7,-003.7,0004.60,0010.10,0003.91
2023-06-30 21:40:00,SystemResetWarning,0835.1,5.00,000.00,029.4,027.9,000.0,037.9,031.0,30.3,-003.6,0004.68,0010.26,0004.01
2023-06-30 21:41:00,SystemResetWarning,0835.0,4.99,000.00,029.4,028.0,000.0,037.9,031.1,30.4,-003.7,0004.76,0010.29,0004.10
2023-06-30 21:42:00,SystemResetWarning,0835.0,4.99,000.00,029.5,028.2,000.0,037.9,031.1,30.8,-003.9,0004.82,0010.92,0004.17
2023-06-30 21:43:00,SystemResetWarning,0835.0,4.99,000.00,029.5,028.3,000.0,038.0,031.2,30.8,-003.9,0004.86,0011.70,0004.22
2023-06-30 21:44:00,SystemResetWarning,0835.1,5.00,000.00,029.5,028.4,000.0,038.0,031.2,30.4,-004.2,0004.87,0011.41,0004.26
2023-06-30 21:45:00,SystemResetWarning,0835.1,5.00,000.00,029.6,028.2,000.0,038.0,031.2,30.2,-004.2,0004.85,0011.53,0004.31
2023-06-30 21:46:00,SystemResetWarning,0835.2,5.00,000.00,029.6,026.6,000.0,037.9,031.1,29.8,-004.1,0004.85,0011.68,0004.32
2023-06-30 21:47:00,SystemResetWarning,0835.1,5.00,000.00,029.5,025.7,000.0,037.8,030.9,30.3,-004.2,0004.81,0011.70,0004.30
2023-06-30 21:48:00,SystemResetWarning,0835.1,5.00,000.00,029.4,025.7,000.0,037.8,030.7,31.4,-004.2,0004.78,0011.86,0004.31
2023-06-30 21:49:00,SystemResetWarning,0835.1,5.01,000.00,029.3,026.0,000.0,037.8,030.6,32.9,-004.0,0004.82,0012.67,0004.33
2023-06-30 21:50:00,SystemResetWarning,0835.1,5.00,000.00,029.3,026.4,000.0,037.9,030.7,33.6,-003.9,0004.86,0012.62,0004.36
2023-06-30 21:51:00,SystemResetWarning,0835.1,4.99,000.00,029.3,026.8,000.0,037.9,030.8,33.2,-003.9,0004.97,0012.42,0004.45
2023-06-30 21:52:00,SystemResetWarning,0835.2,5.00,000.00,029.3,027.1,000.0,037.9,030.9,33.1,-003.9,0005.09,0012.56,0004.55
2023-06-30 21:53:00,SystemResetWarning,0835.2,5.00,000.00,029.3,027.4,000.0,037.9,030.9,32.6,-003.7,0005.21,0011.92,0004.64
2023-06-30 21:54:00,SystemResetWarning,0835.2,5.00,000.00,029.3,027.6,000.0,037.9,031.0,32.7,-003.6,0005.32,0011.91,0004.73
2023-06-30 21:55:00,SystemResetWarning,0835.1,5.00,000.00,029.4,027.8,000.0,037.9,031.0,32.9,-003.4,0005.41,0012.27,0004.81
2023-06-30 21:56:00,SystemResetWarning,0835.1,4.99,000.00,029.4,027.9,000.0,037.9,031.0,32.1,-003.0,0005.51,0012.03,0004.89
2023-06-30 21:57:00,SystemResetWarning,0835.1,5.00,000.00,029.4,028.1,000.0,037.9,031.1,32.2,-003.3,0005.61,0012.45,0004.97
2023-06-30 21:58:00,SystemResetWarning,0835.1,4.99,000.00,029.5,028.2,000.0,037.9,031.1,32.0,-003.4,0005.70,0012.63,0005.04
2023-06-30 21:59:00,SystemResetWarning,0835.0,5.00,000.00,029.5,028.3,000.0,038.0,031.1,32.4,-003.3,0005.81,0012.73,0005.11
